�N����,����,�~����,�C��,���x,�C��,����,���ϕ���,�ő�u�ԕ���,�ő厞����,���˗�,�I�_���x,�n�����x,�ő啗���N��,DTYPE
"18/09/08","00:10",2.0,23.7,93.8,1003.6,354.8,1.0,1.8,341.2,0.00,22.7,25.0,"00:01:28",1
"18/09/08","00:20",1.2,23.6,94.2,1003.4,286.7,0.5,1.2,331.6,0.00,22.7,25.1,"00:11:36",1
"18/09/08","00:30",3.6,23.6,94.3,1003.1,236.8,0.5,1.1,51.5,0.00,22.7,25.2,"00:27:44",1
"18/09/08","00:40",2.4,23.6,94.5,1003.1,207.1,1.2,2.5,202.5,0.00,22.7,25.1,"00:36:16",1
"18/09/08","00:50",3.0,23.6,94.6,1002.9,203.7,0.7,1.7,203.9,0.00,22.7,25.1,"00:40:40",1
"18/09/08","01:00",1.4,23.6,94.9,1002.9,216.8,1.2,2.1,336.6,0.00,22.8,24.8,"00:53:20",1
"18/09/08","01:10",0.8,23.6,94.9,1003.4,250.3,1.2,2.2,240.6,0.00,22.8,24.8,"01:01:44",1
"18/09/08","01:20",1.4,23.5,95.1,1003.4,257.0,0.6,1.4,237.0,0.00,22.7,24.7,"01:10:16",1
"18/09/08","01:30",3.6,23.5,95.1,1003.1,333.4,1.0,2.0,356.4,0.00,22.7,24.8,"01:27:28",1
"18/09/08","01:40",1.6,23.4,95.3,1002.9,307.5,0.7,1.7,9.5,0.00,22.6,24.9,"01:30:48",1
"18/09/08","01:50",0.6,23.4,95.3,1002.6,269.5,0.8,1.7,230.3,0.00,22.6,24.8,"01:49:36",1
"18/09/08","02:00",0.4,23.4,95.4,1002.9,237.2,0.6,1.3,228.4,0.00,22.7,24.7,"01:50:08",1
"18/09/08","02:10",0.2,23.4,95.5,1003.4,240.0,0.7,1.1,251.7,0.00,22.7,24.9,"02:04:08",1
"18/09/08","02:20",0.0,23.5,95.5,1002.9,345.7,0.6,1.6,345.9,0.00,22.8,24.6,"02:19:04",1
"18/09/08","02:30",1.4,23.5,95.6,1002.9,217.8,1.0,2.0,232.3,0.00,22.8,24.8,"02:27:04",1
"18/09/08","02:40",1.6,23.5,95.6,1002.9,309.5,0.8,1.7,237.1,0.00,22.8,24.7,"02:30:24",1
"18/09/08","02:50",0.0,23.5,95.7,1002.9,346.0,0.7,1.3,259.7,0.00,22.8,24.6,"02:44:48",1
"18/09/08","03:00",0.0,23.5,95.7,1002.4,7.9,0.8,1.4,347.9,0.00,22.8,24.6,"02:58:24",1
"18/09/08","03:10",0.0,23.6,95.8,1002.2,14.7,0.5,2.1,341.1,0.00,22.9,24.6,"03:09:36",1
"18/09/08","03:20",0.0,23.7,95.8,1002.4,239.3,1.3,2.8,220.5,0.00,23.0,24.7,"03:18:48",1
"18/09/08","03:30",0.8,23.7,95.8,1002.2,196.8,1.1,2.7,235.5,0.00,23.0,24.8,"03:21:52",1
"18/09/08","03:40",2.8,23.7,95.8,1001.9,137.9,0.6,1.6,200.2,0.00,23.0,24.6,"03:39:52",1
"18/09/08","03:50",6.6,23.7,95.7,1002.9,270.4,2.0,4.9,354.7,0.00,23.0,24.6,"03:46:50",1
"18/09/08","04:00",1.4,23.7,95.9,1002.6,296.1,1.0,2.4,337.4,0.00,23.0,24.6,"03:55:20",1
"18/09/08","04:10",0.6,23.8,95.8,1003.1,220.2,1.0,2.2,230.4,0.00,23.1,24.7,"04:01:28",1
"18/09/08","04:20",0.2,23.8,95.7,1003.4,221.7,1.0,2.6,343.0,0.00,23.1,24.8,"04:19:12",1
"18/09/08","04:30",0.2,22.6,95.3,1003.6,277.8,2.1,5.6,331.9,0.00,21.8,24.8,"04:21:20",1
"18/09/08","04:40",0.0,22.3,95.4,1004.1,271.6,1.5,3.3,277.1,0.00,21.6,24.7,"04:30:40",1
"18/09/08","04:50",0.0,21.9,95.3,1004.5,277.4,1.5,4.3,225.4,0.00,21.2,24.6,"04:42:00",1
"18/09/08","05:00",0.0,21.7,95.2,1004.8,282.8,1.3,2.9,289.1,0.00,20.9,24.7,"04:53:36",1
"18/09/08","05:10",0.2,21.5,95.1,1004.8,315.2,1.6,2.8,340.3,0.00,20.7,24.5,"05:06:48",1
"18/09/08","05:20",1.0,21.3,95.0,1004.8,312.6,1.6,3.2,319.6,0.00,20.5,24.5,"05:14:40",1
"18/09/08","05:30",0.2,21.0,94.8,1005.2,311.0,1.6,3.2,336.5,0.00,20.2,24.4,"05:22:24",1
"18/09/08","05:40",0.2,21.0,94.9,1005.5,331.5,1.6,4.2,342.3,0.00,20.2,24.2,"05:32:02",1
"18/09/08","05:50",0.4,20.9,94.8,1006.0,324.5,1.2,3.2,344.5,0.00,20.1,24.4,"05:40:02",1
"18/09/08","06:00",0.4,21.0,94.9,1006.2,332.1,1.5,2.2,325.6,0.00,20.2,24.2,"05:50:08",1
"18/09/08","06:10",0.2,20.8,94.9,1005.7,325.0,1.3,2.8,328.2,0.00,20.0,24.3,"06:01:20",1
"18/09/08","06:20",0.0,20.7,94.8,1006.0,275.3,0.6,1.8,264.6,0.00,19.9,24.2,"06:19:28",1
"18/09/08","06:30",0.0,20.9,95.1,1006.0,257.0,0.7,1.3,242.1,0.00,20.1,24.3,"06:21:28",1
"18/09/08","06:40",0.0,21.1,95.0,1006.4,193.0,0.7,1.7,215.7,0.00,20.3,24.0,"06:31:20",1
"18/09/08","06:50",0.0,21.2,95.0,1006.2,24.8,0.5,1.3,355.9,0.00,20.4,24.2,"06:49:52",1
"18/09/08","07:00",0.0,21.2,94.7,1006.2,327.4,1.1,1.6,344.4,0.01,20.4,24.1,"06:52:16",1
"18/09/08","07:10",0.2,21.3,95.1,1006.4,288.7,0.6,1.0,302.0,0.01,20.5,24.1,"07:00:16",1
"18/09/08","07:20",0.0,21.2,95.1,1006.7,325.5,1.1,1.8,336.4,0.01,20.4,24.0,"07:13:36",1
"18/09/08","07:30",0.0,21.2,95.2,1006.7,318.4,1.0,1.8,344.2,0.00,20.4,24.0,"07:23:20",1
"18/09/08","07:40",0.0,21.1,95.3,1006.4,319.3,1.0,2.0,341.8,0.01,20.4,24.1,"07:37:28",1
"18/09/08","07:50",0.0,21.1,95.2,1006.9,303.2,0.7,1.4,319.1,0.03,20.3,24.2,"07:45:36",1
"18/09/08","08:00",0.0,21.2,95.0,1006.7,278.7,0.2,0.9,343.0,0.03,20.4,24.1,"07:57:52",1
"18/09/08","08:10",0.0,21.2,95.0,1007.4,323.1,0.6,1.3,338.6,0.02,20.4,24.2,"08:06:56",1
"18/09/08","08:20",0.2,21.3,95.4,1007.4,334.2,0.2,0.9,0.6,0.01,20.6,24.2,"08:11:04",1
"18/09/08","08:30",0.0,21.3,94.9,1007.4,333.4,0.6,1.2,340.3,0.01,20.5,24.3,"08:24:56",1
"18/09/08","08:40",0.2,21.2,94.9,1007.6,296.1,0.3,0.9,334.6,0.03,20.4,24.0,"08:32:56",1
"18/09/08","08:50",0.0,21.3,94.9,1007.8,274.2,0.1,0.5,338.6,0.02,20.5,24.2,"08:45:36",1
"18/09/08","09:00",0.2,21.4,95.0,1008.1,253.1,0.3,1.0,309.8,0.03,20.6,24.0,"08:59:04",1
"18/09/08","09:10",0.4,21.6,95.3,1007.8,311.1,0.5,1.1,312.3,0.04,20.9,24.0,"09:01:04",1
"18/09/08","09:20",0.4,21.6,95.4,1008.1,334.4,0.7,1.7,341.0,0.10,20.9,24.1,"09:17:12",1
"18/09/08","09:30",0.0,21.6,94.7,1008.1,341.7,0.8,1.8,334.1,0.05,20.8,24.2,"09:22:08",1
"18/09/08","09:40",0.2,22.0,94.8,1008.1,312.1,0.8,1.9,342.6,0.09,21.2,24.1,"09:37:04",1
"18/09/08","09:50",0.0,21.6,94.3,1008.8,280.3,0.7,1.6,309.6,0.04,20.7,24.1,"09:46:00",1
"18/09/08","10:00",0.0,21.9,94.9,1008.8,265.3,0.3,1.1,335.0,0.06,21.1,24.2,"09:52:00",1
"18/09/08","10:10",0.0,21.8,94.5,1008.6,333.7,0.8,1.4,330.4,0.05,20.9,24.2,"10:01:44",1
"18/09/08","10:20",0.0,21.6,94.5,1008.1,356.6,1.0,2.4,348.0,0.03,20.7,24.3,"10:19:12",1
"18/09/08","10:30",0.2,22.0,94.9,1008.1,318.2,1.2,2.5,332.4,0.09,21.2,24.2,"10:28:48",1
"18/09/08","10:40",0.0,21.9,93.9,1008.1,316.4,1.5,2.4,342.6,0.14,20.9,24.2,"10:36:08",1
"18/09/08","10:50",0.0,22.5,93.8,1007.8,258.9,0.7,1.6,289.8,0.17,21.5,24.3,"10:40:24",1
"18/09/08","11:00",0.0,22.5,91.1,1007.8,288.4,0.8,1.6,236.9,0.14,21.0,24.3,"10:51:28",1
"18/09/08","11:10",0.0,22.8,90.6,1007.6,337.6,0.7,2.4,337.1,0.15,21.2,24.4,"11:00:02",1
"18/09/08","11:20",0.0,22.5,90.3,1007.6,353.0,0.8,2.7,343.6,0.10,20.9,24.5,"11:12:00",1
"18/09/08","11:30",0.0,22.6,88.4,1007.1,229.5,0.2,1.0,208.7,0.06,20.6,24.5,"11:21:36",1
"18/09/08","11:40",0.0,22.7,88.5,1007.1,13.6,0.5,1.2,321.6,0.14,20.7,24.6,"11:37:36",1
"18/09/08","11:50",0.0,23.3,88.0,1007.4,310.9,0.7,1.1,334.5,0.14,21.2,24.7,"11:46:00",1
"18/09/08","12:00",0.0,23.2,87.2,1007.6,326.7,0.7,1.7,358.4,0.12,21.0,24.7,"11:56:40",1
"18/09/08","12:10",0.0,23.3,85.3,1007.1,339.7,1.0,1.9,338.3,0.08,20.7,24.8,"12:09:20",1
"18/09/08","12:20",0.0,23.4,85.3,1007.4,336.5,1.5,2.1,345.2,0.08,20.8,24.8,"12:10:08",1
"18/09/08","12:30",0.0,23.5,86.7,1007.4,299.4,0.7,1.4,324.5,0.06,21.2,24.8,"12:20:08",1
"18/09/08","12:40",0.0,23.0,88.0,1007.8,316.0,1.2,2.1,335.3,0.09,20.9,24.9,"12:32:40",1
"18/09/08","12:50",0.0,23.1,88.3,1007.6,298.7,1.2,2.1,331.6,0.09,21.1,24.8,"12:42:40",1
"18/09/08","13:00",0.0,22.9,88.6,1007.6,328.7,2.6,4.9,339.8,0.09,21.0,24.9,"12:55:52",1
"18/09/08","13:10",0.0,22.9,89.1,1007.8,314.9,1.8,3.5,336.0,0.08,21.0,25.0,"13:03:28",1
"18/09/08","13:20",0.0,23.0,89.7,1007.6,293.0,1.1,2.8,12.1,0.13,21.3,24.7,"13:19:52",1
"18/09/08","13:30",0.0,23.3,88.9,1007.8,334.7,1.7,3.9,336.8,0.19,21.4,25.0,"13:26:56",1
"18/09/08","13:40",0.0,23.8,88.4,1007.6,314.6,1.3,2.9,344.2,0.26,21.8,25.0,"13:38:32",1
"18/09/08","13:50",0.0,23.5,86.9,1007.4,307.7,1.5,3.9,320.1,0.15,21.2,25.1,"13:41:36",1
"18/09/08","14:00",0.0,23.5,85.6,1007.6,307.2,1.3,2.5,352.5,0.05,21.0,25.1,"13:54:08",1
"18/09/08","14:10",0.0,23.5,85.4,1007.8,301.5,1.1,3.1,347.2,0.04,20.9,25.2,"14:03:20",1
"18/09/08","14:20",0.0,23.4,85.4,1007.8,298.5,1.2,2.5,343.3,0.04,20.9,25.1,"14:15:52",1
"18/09/08","14:30",0.0,23.6,85.2,1007.8,332.1,1.5,3.1,339.1,0.08,21.0,25.2,"14:25:12",1
"18/09/08","14:40",0.0,23.2,86.1,1007.6,318.9,1.8,3.7,331.5,0.09,20.8,25.4,"14:36:56",1
"18/09/08","14:50",0.0,23.3,87.3,1006.9,321.9,1.6,2.9,339.8,0.10,21.1,25.1,"14:46:08",1
"18/09/08","15:00",0.0,23.1,88.0,1007.1,319.7,1.6,3.5,341.7,0.11,21.0,25.1,"14:54:24",1
"18/09/08","15:10",0.0,23.3,86.6,1006.9,313.1,1.3,3.3,344.9,0.08,21.0,25.3,"15:03:52",1
"18/09/08","15:20",0.0,23.2,86.8,1006.9,279.3,1.1,2.0,312.1,0.08,20.9,25.2,"15:18:32",1
"18/09/08","15:30",0.2,23.0,88.3,1006.9,328.2,1.7,3.5,339.5,0.09,21.0,24.8,"15:24:56",1
"18/09/08","15:40",0.0,23.0,88.9,1006.7,325.2,1.0,2.4,336.9,0.09,21.1,25.2,"15:35:04",1
"18/09/08","15:50",0.0,23.2,88.5,1006.9,289.7,0.6,1.2,262.6,0.09,21.2,25.3,"15:48:40",1
"18/09/08","16:00",0.0,23.5,87.4,1006.9,256.0,0.8,1.6,231.1,0.09,21.3,25.2,"15:55:20",1
"18/09/08","16:10",0.0,23.6,87.1,1006.7,300.2,0.6,1.4,336.0,0.07,21.4,25.2,"16:07:24",1
"18/09/08","16:20",0.0,23.8,87.5,1006.4,331.4,1.2,2.2,340.2,0.09,21.6,25.5,"16:14:16",1
"18/09/08","16:30",0.0,23.8,86.4,1006.7,310.7,1.2,2.1,348.1,0.06,21.4,25.1,"16:23:52",1
"18/09/08","16:40",0.0,23.5,86.9,1006.7,276.4,1.0,2.2,321.4,0.03,21.2,25.4,"16:33:52",1
"18/09/08","16:50",0.0,23.3,87.7,1006.2,277.7,1.1,2.1,283.2,0.02,21.2,25.3,"16:45:12",1
"18/09/08","17:00",0.0,23.2,88.2,1006.7,275.6,0.8,1.6,238.2,0.02,21.2,25.3,"16:58:48",1
"18/09/08","17:10",0.0,23.3,89.2,1006.7,284.8,0.8,1.4,266.3,0.02,21.5,25.2,"17:04:00",1
"18/09/08","17:20",0.0,23.3,89.8,1006.7,293.7,0.7,1.2,332.3,0.02,21.6,25.2,"17:11:52",1
"18/09/08","17:30",0.0,23.2,90.1,1006.4,309.1,1.0,1.9,328.6,0.01,21.5,25.2,"17:22:16",1
"18/09/08","17:40",0.0,23.2,90.5,1006.9,292.7,0.7,1.0,308.7,0.00,21.6,25.1,"17:32:48",1
"18/09/08","17:50",0.0,23.1,90.3,1006.9,280.4,0.7,1.2,291.9,0.00,21.5,25.1,"17:46:48",1
"18/09/08","18:00",0.0,23.0,90.9,1006.9,285.2,1.0,1.8,258.6,0.00,21.5,25.0,"17:50:16",1
"18/09/08","18:10",0.0,23.0,91.4,1006.9,300.1,0.8,1.2,311.1,0.00,21.6,25.0,"18:01:28",1
"18/09/08","18:20",0.0,22.9,91.6,1006.7,323.4,1.3,1.9,312.1,0.00,21.5,25.0,"18:14:48",1
"18/09/08","18:30",0.0,22.8,92.1,1006.7,321.4,1.3,1.9,324.4,0.00,21.5,25.0,"18:22:24",1
"18/09/08","18:40",0.0,22.6,92.4,1006.7,323.0,1.3,2.1,337.8,0.00,21.3,25.1,"18:33:04",1
"18/09/08","18:50",0.0,22.6,92.6,1006.9,315.3,1.1,2.0,331.9,0.00,21.4,25.1,"18:41:04",1
"18/09/08","19:00",0.0,22.5,92.9,1006.9,291.0,1.0,1.3,274.6,0.00,21.3,25.0,"18:57:12",1
"18/09/08","19:10",0.0,22.3,93.1,1006.9,307.8,1.5,2.6,322.6,0.00,21.2,25.1,"19:08:08",1
"18/09/08","19:20",0.0,22.3,93.3,1006.4,301.4,1.1,2.1,314.4,0.00,21.2,24.9,"19:10:16",1
"18/09/08","19:30",0.0,22.2,93.3,1006.9,277.5,1.1,1.7,314.6,0.00,21.1,24.9,"19:20:02",1
"18/09/08","19:40",0.0,22.1,93.4,1007.6,287.2,1.2,1.8,326.2,0.00,21.0,24.8,"19:31:28",1
"18/09/08","19:50",0.0,22.1,93.5,1007.6,288.4,1.2,2.0,323.0,0.00,21.0,24.6,"19:49:44",1
"18/09/08","20:00",0.0,22.1,93.4,1007.6,327.7,2.3,3.6,324.5,0.00,21.0,24.7,"19:53:28",1
"18/09/08","20:10",0.4,22.1,93.3,1008.1,315.6,1.6,4.0,328.8,0.00,21.0,24.5,"20:00:32",1
"18/09/08","20:20",0.8,22.1,93.3,1007.6,315.6,1.3,2.2,330.1,0.00,21.0,24.8,"20:17:52",1
"18/09/08","20:30",0.2,21.9,93.6,1008.1,292.0,0.8,2.2,347.1,0.00,20.9,24.8,"20:20:56",1
"18/09/08","20:40",0.0,21.8,93.6,1008.1,304.5,1.0,2.1,323.7,0.00,20.8,24.7,"20:39:52",1
"18/09/08","20:50",0.0,21.7,93.7,1007.8,321.1,1.3,2.9,343.6,0.00,20.7,24.6,"20:44:24",1
"18/09/08","21:00",0.0,21.8,93.9,1008.1,307.0,0.8,1.9,329.8,0.00,20.8,24.6,"20:58:16",1
"18/09/08","21:10",0.0,21.8,94.2,1008.1,337.9,1.0,2.1,322.9,0.00,20.9,24.4,"21:00:16",1
"18/09/08","21:20",0.0,21.9,94.3,1008.3,316.3,0.3,0.8,358.5,0.00,21.0,24.5,"21:12:24",1
"18/09/08","21:30",0.0,21.9,94.5,1008.3,304.4,0.3,0.8,345.8,0.00,21.0,24.4,"21:24:40",1
"18/09/08","21:40",0.0,21.9,94.7,1008.1,281.6,0.5,0.6,271.3,0.00,21.1,24.3,"21:30:56",1
"18/09/08","21:50",0.0,21.9,94.7,1008.3,301.3,0.6,1.4,336.6,0.00,21.1,24.3,"21:40:02",1
"18/09/08","22:00",0.0,21.9,94.9,1008.6,311.4,1.0,1.8,346.8,0.00,21.1,24.3,"21:53:36",1
"18/09/08","22:10",0.0,21.9,94.9,1008.3,287.9,0.8,1.6,337.0,0.00,21.1,24.2,"22:00:40",1
"18/09/08","22:20",0.0,21.8,95.0,1008.1,280.4,0.7,1.2,314.9,0.00,21.0,24.2,"22:16:24",1
"18/09/08","22:30",0.0,21.7,95.1,1008.1,280.8,0.7,1.1,331.5,0.00,20.9,24.3,"22:20:40",1
"18/09/08","22:40",0.0,21.7,95.2,1007.6,282.9,0.7,1.2,316.3,0.00,20.9,24.1,"22:37:44",1
"18/09/08","22:50",0.2,21.6,95.3,1008.1,264.2,0.7,1.3,253.6,0.00,20.9,24.2,"22:49:28",1
"18/09/08","23:00",0.0,21.6,95.4,1007.8,277.9,0.6,1.0,320.9,0.00,20.9,24.2,"22:58:48",1
"18/09/08","23:10",0.0,21.5,95.4,1007.8,282.0,0.6,1.1,268.7,0.00,20.8,24.2,"23:04:56",1
"18/09/08","23:20",0.0,21.5,95.5,1007.6,280.2,0.7,1.0,328.4,0.00,20.8,24.1,"23:16:08",1
"18/09/08","23:30",0.0,21.5,95.7,1007.4,305.3,0.7,1.0,323.5,0.00,20.8,24.2,"23:27:04",1
"18/09/08","23:40",0.0,21.6,95.6,1007.4,328.0,0.7,1.4,333.4,0.00,20.9,24.2,"23:33:28",1
"18/09/08","23:50",0.0,21.6,95.8,1007.6,308.5,0.7,1.1,316.7,0.00,20.9,24.2,"23:40:08",1
"18/09/08","24:00",0.0,21.6,95.8,1007.4,319.9,0.3,0.9,342.9,0.00,20.9,24.4,"23:52:56",1
